Regional Weather Roundup
Issued by NWS Upton, NY

Current Version | Previous Version | Text Only | Print | Product List | Glossary On
Versions: 1 2 3 4 5 6 7 8 9 10 11 12 13 14 15 16 17 18 19 20 21 22 23 24 25 26 27 28
000 ASUS41 KOKX 281005 RWROKX REGIONAL WEATHER ROUNDUP NATIONAL WEATHER SERVICE NEW YORK NY 600 AM EDT SUN AUG 28 2016 NOTE: "FAIR" INDICATES FEW OR NO CLOUDS BELOW 12,000 FEET WITH NO SIGNIFICANT WEATHER AND/OR OBSTRUCTIONS TO VISIBILITY. NYZ071-072-176-178-NJZ106-104-281100- NEW YORK CITY METRO AREA CITY SKY/WX TMP DP RH WIND PRES REMARKS Central Park CLEAR 72 66 81 VRB3 30.27R LaGuardia APRT PTCLDY 75 69 81 E5 30.24R Kennedy INTL PTCLDY 74 70 87 NE6 30.25R Newark/Liberty PTCLDY 74 70 87 CALM 30.24R Bronx Bot Gard N/A 68 66 94 NE1 30.24S Wall St Helipt SUNNY 75 70 83 SE3 30.25R Teterboro PTCLDY 67 61 81 NW3 30.24R $$ NYZ177-179-078>081-281100- LONG ISLAND NEW YORK CITY SKY/WX TMP DP RH WIND PRES REMARKS Farmingdale CLEAR 68 66 93 N5 30.25R MacArthur/ISP PTCLDY 67 65 93 CALM 30.25R Shirley CLEAR 63 62 97 CALM 30.26R Riverhead NOT AVBL Westhampton CLEAR 59 56 89 CALM 30.27R Southampton N/A 68 66 94 CALM 30.22R Bridgehampton N/A 64 63 94 CALM 30.24S East Hampton FAIR 59 58 96 CALM 30.25S Montauk N/A 66 63 90 CALM 30.27R $$ NYZ052-065-067-281100- HUDSON VALLEY CITY SKY/WX TMP DP RH WIND PRES REMARKS White Plains CLEAR 66 63 90 CALM 30.26R Newburgh CLEAR 64 61 88 CALM 30.26R Montgomery CLEAR 60 59 96 CALM 30.26R Poughkeepsie PTCLDY 62 60 93 CALM 30.24R Albany PTCLDY 65 63 93 CALM 30.23R $$ NJZ001-105-106-008-010-013-015-019>022-104-281100- NEW JERSEY CITY SKY/WX TMP DP RH WIND PRES REMARKS Newark/Liberty PTCLDY 74 70 87 CALM 30.24R Teterboro PTCLDY 67 61 81 NW3 30.24R Caldwell PTCLDY 64 61 90 CALM 30.26R Morristown CLEAR 57 57 100 CALM 30.26R FOG Somerville PTCLDY 61 59 93 CALM 30.24R Linden FAIR 69 64 85 CALM 30.26R Sussex CLEAR 59 59 100 CALM 30.26R Abdover N/A 59 57 93 CALM 30.27R Trenton CLEAR 64 61 90 N6 30.24R HAZE Millville CLEAR 64 64 100 CALM 30.22S Atlantic City PTCLDY 64 62 93 CALM 30.22S FOG Wrightstown CLEAR 62 62 99 N2 30.21R Toms River CLEAR 58 55 90 CALM 30.24R Belmar CLEAR 65 61 87 CALM 30.25R $$ PAZ047>061-062-071-281100- EASTERN PENNSYLVANIA CITY SKY/WX TMP DP RH WIND PRES REMARKS Philadelphia PTCLDY 70 68 93 NE3 30.24R Allentown CLEAR 62 59 90 CALM 30.26R Scranton CLEAR 63 59 87 S5 30.26R $$ CTZ002-004>006-009-010-012-RIZ004-006-007-MAZ004-011-015-281100- SOUTHERN NEW ENGLAND IN CT CITY SKY/WX TMP DP RH WIND PRES REMARKS Bradley INTL PTCLDY 65 62 90 S3 30.26R Hartford CLEAR 67 64 90 CALM 30.26R Danbury CLEAR 59 58 96 SW3 30.28R Wtrbury/Oxford PTCLDY 64 61 88 CALM 30.29R Bridgeport CLEAR 73 66 78 SE3 30.26R Meriden CLEAR 64 60 87 CALM 30.26R New Haven CLEAR 65 64 97 N5 30.26R Chester CLOUDY 66 64 94 CALM 30.27S Groton PTCLDY 65 62 90 CALM 30.26R Wilimantic CLEAR 62 61 96 CALM 30.28R IN RI CITY SKY/WX TMP DP RH WIND PRES REMARKS Providence MOCLDY 66 63 90 CALM 30.27R Block Island CLEAR 68 62 81 SE3 30.27R Westerly CLEAR 62 58 86 CALM 30.27R IN MA CITY SKY/WX TMP DP RH WIND PRES REMARKS Boston PTCLDY 67 64 90 SE3 30.27R Worcester PTCLDY 64 62 93 SW6 30.29R Westfield MOCLDY 62 62 100 CALM 30.26R Provincetown CLEAR 56 54 93 CALM 30.28R Nantucket CLEAR 59 58 96 NE5 30.26R $$ ANZ330-335-338-340-345-350-353-355-281100- COASTAL MARINE OBSERVATIONS STATION/POSITION TIME SKY/WX TEMP WIND PRES VSBY WAVE AIR SEA DIR/SP/G HT/PER (UTC) (F) (DEG/KT/KT) (MB) (MI) (FT/S) NY HARB ENTRANCE 0850 76 75 140/ 10/ 12 1022.8 2/ 9 20S FIRE ISLAND 0850 76 74 130/ 12/ 14 1022.8 2/ 9 GREAT SOUTH BAY 0900 75 79 120/ 6/ 8 N/A 23 SSW MONTAUK P NOT AVBL 15 E BARNEGAT LI 0900 76 N/A 3/ 8 HUDSON CANYON 0950 77 78 1022.7 3/ 9 KINGS POINT 0900 71 77 1023.5 EXECUTION ROCKS 0900 72 CALM / 2 N/A CENTRAL LI SOUND 0900 74 76 130/ 8/ 12 N/A 1 EASTERN LI SOUND 0900 71 72 100/ 4/ 4 N/A ROBBINS REEF 0900 74 110/ 5/ 6 1022.8 $$ >>>>>>>>>>>>>>>>>>>>>>>>>>>> KEY <<<<<<<<<<<<<<<<<<<<<<<<<<< > < > SKY/WX - Sky Condition/Present Weather < > TMP - Temperature in Fahrenheit < > DP - Dew Point in Fahrenheit < > RH - Relative Humidity in Percent < > WIND - Direction (from) and Speed in MPH < > PRES - Mean Sea Level Pressure (inches of Hg) < > WCI - Wind Chill Index < > VSB - VISIBILITY IN MILES < > HX - HEAT INDEX < > TC - TEMPERATURE IN CELSIUS < > VRB - VARIABLE WIND DIRECTION < > < >>>>>>>>>>>>>>>>>>>>>>>>>>>> KEY <<<<<<<<<<<<<<<<<<<<<<<<<<<

USA.gov is the U.S. government's official web portal to all federal, state and local government web resources and services.